Home   Weather   Westerstede   Past weeks

Flag for Germany Past Weather in Westerstede, Lower Saxony, Germany — Yesterday and Last 2 Weeks

39 °F


Feels Like: 39 °F
Forecast: 39 / 49 °F
Wind: 1 mph from Northeast

Location: Wittmundhaven

Current Time: Oct 22, 2016 at 7:26:08 AM

Latest Report: Oct 22, 2016 at 6:20 AM

Visibility: 1 mi

Pressure: 29.95 "Hg

Humidity: 100%

Dew Point: 39 °F

Location of WesterstedeLocation

Past Weather in Westerstede — Graph


Westerstede Temperature Yesterday

Maximum temperature yesterday: 48 °F (at 10:49 AM)
Minimum temperature yesterday: 39 °F (at 2:20 AM)
Average temperature yesterday: 46 °F

High & Low Weather Summary for the Past Weeks

High61 °F (Oct 16, 2:20 PM)100% (Oct 8, 11:20 PM)30.33 "Hg (Oct 8, 11:20 PM)
Low37 °F (Oct 8, 11:20 PM)58% (Oct 8, 5:20 PM)29.74 "Hg (Oct 15, 3:20 AM)
Average48 °F89%30.09 "Hg
* Reported Oct 7 5:20 AM — Oct 22 5:20 AM, Westerstede, Weather by CustomWeather, © 2016

Note: Actual official high and low records may vary slightly from our data, if they occured in-between our weather recording intervals... More about our weather records


Westerstede Weather History for the Previous 24 Hours

Scroll right to see more
Time TempWeatherWind HumidityBarometerVisibility
5:20 AM
Sat, Oct 22
43 °FFog.3 mph100%29.95 "Hg2 mi
4:20 AM45 °FFog.5 mph93%29.95 "Hg2 mi
3:20 AM43 °FFog.3 mph93%29.95 "Hg2 mi
2:20 AM43 °FPassing clouds.2 mph100%29.95 "Hg5 mi
1:20 AM45 °FPassing clouds.6 mph93%29.95 "Hg5 mi
12:20 AM45 °FPassing clouds.5 mph93%29.95 "Hg5 mi
11:20 PM
Fri, Oct 21
43 °FPassing clouds.5 mph100%29.92 "HgN/A
10:20 PM45 °FPassing clouds.5 mph93%29.92 "HgN/A
9:20 PM46 °FPassing clouds.6 mph93%29.92 "HgN/A
8:20 PM48 °FPassing clouds.8 mph94%29.92 "HgN/A
7:20 PM48 °FPartly cloudy.6 mph94%29.89 "HgN/A
6:20 PM48 °FLight rain. Partly cloudy.5 mph100%29.89 "HgN/A
5:46 PM48 °FLight rain. Partly sunny.2 mph100%29.89 "HgN/A
5:20 PM48 °FLight rain. Fog.3 mph94%29.89 "Hg3 mi
4:20 PM48 °FPartly sunny.2 mph94%29.89 "HgN/A
3:20 PM48 °FBroken clouds.3 mph94%29.92 "HgN/A
2:45 PM48 °FLight rain. Broken clouds.6 mph94%29.92 "Hg6 mi
2:20 PM48 °FRain. Partly sunny.3 mph94%29.92 "Hg4 mi
1:20 PM48 °FLight rain. Partly sunny.3 mph94%29.92 "Hg6 mi
12:20 PM48 °FLight rain. Broken clouds.6 mph94%29.95 "Hg4 mi
11:20 AM48 °FLight rain. Broken clouds.3 mph94%29.95 "Hg4 mi
10:49 AM48 °FLight rain. Fog.3 mph94%29.95 "Hg3 mi
10:20 AM46 °FLight rain. Fog.3 mph100%29.95 "Hg3 mi
10:04 AM46 °FLight rain. Partly sunny.5 mph100%29.95 "Hg4 mi
9:20 AM46 °FLight rain. Partly sunny.5 mph93%29.95 "Hg4 mi
8:20 AM45 °FFog.2 mph100%29.98 "Hg3 mi
7:20 AM45 °FPartly cloudy.2 mph93%29.95 "Hg5 mi
Weather by CustomWeather, © 2016

See weather overviewHow to use our weather pages